Location: Pabrico
(37.5827°N, 122.0063°W)
Time: 03:35:12
(UTC+00:00)

ISS - Visible Passes

Search period start: 24 June 2024 00:00
Search period end: 04 July 2024 00:00
Orbit: 410 x 425 km, 51.6° (Epoch: 23 June)

Date Brightness Start Highest point End Pass type
(mag) Time Alt. Az. Time Alt. Az. Time Alt. Az.
24 Jun -2.1 10:19:35 25° ESE 10:19:35 25° ESE 10:21:42 10° ENE visible
24 Jun -2.2 11:52:35 10° W 11:55:29 28° NNW 11:58:26 10° NNE visible
25 Jun -3.0 11:06:08 31° W 11:07:17 45° NW 11:10:31 10° NE visible
26 Jun -3.2 10:19:42 58° NE 10:19:42 58° NE 10:22:28 10° NE visible
26 Jun -1.2 11:54:24 10° WNW 11:56:20 14° NNW 11:58:17 10° NNE visible
27 Jun -1.2 09:33:11 18° ENE 09:33:11 18° ENE 09:34:14 10° ENE visible
27 Jun -1.6 11:06:05 13° WNW 11:07:57 20° NNW 11:10:29 10° NNE visible
28 Jun -2.2 10:19:29 29° NW 10:19:36 29° NNW 10:22:34 10° NNE visible
29 Jun -1.5 09:32:49 26° NNE 09:32:49 26° NNE 09:34:31 10° NE visible
29 Jun -0.9 11:07:33 10° NW 11:08:41 11° NNW 11:09:51 10° N visible
30 Jun -0.6 08:46:05 12° NE 08:46:05 12° NE 08:46:19 10° NE visible
30 Jun -1.1 10:18:58 13° NW 10:20:10 15° NNW 10:22:10 10° NNE visible
01 Jul -1.3 09:32:09 20° NNW 09:32:09 20° NNW 09:34:15 10° NNE visible
02 Jul -0.8 08:45:15 16° NNE 08:45:15 16° NNE 08:46:11 10° NNE visible
03 Jul -0.7 09:31:07 11° NW 09:32:08 12° NNW 09:33:24 10° N visible
